This is the latest recevied weather packets stored in our database for station/object CQ0XCR-11. If no packets are shown the sender has not sent any weather packets the latest 1 day(s).
| Time | Temp. | Humidity | Pressure | Rain* | Wind** | Luminosity | Snow |
|---|---|---|---|---|---|---|---|
| 1778000810 | -2.78° C | - | 6550.2 hPa | 0.51 mm | 1.34 m/s, 298° | - | - |
| 1777999570 | -2.78° C | - | 6550.2 hPa | 0.25 mm | 2.68 m/s, 324° | - | - |
| 1777999446 | -2.78° C | - | 6550.2 hPa | 0.25 mm | 2.68 m/s, 320° | - | - |
| 1777999322 | -2.78° C | - | 6550.2 hPa | 0.25 mm | 4.47 m/s, 313° | - | - |
| 1777998994 | -2.78° C | - | 6550.2 hPa | 0.25 mm | 2.68 m/s, 293° | - | - |
| 1777998842 | -2.78° C | - | 6550.2 hPa | 0.25 mm | 2.24 m/s, 317° | - | - |
| 1777998206 | -2.78° C | - | 6550.2 hPa | 0.25 mm | 2.68 m/s, 263° | - | - |
| 1777997834 | -2.78° C | - | 6550.2 hPa | 0.25 mm | 2.68 m/s, 288° | - | - |
| 1777997462 | -2.78° C | - | 6550.2 hPa | 0.25 mm | 3.13 m/s, 318° | - | - |
| 1777997338 | -2.78° C | - | 6550.2 hPa | 0.25 mm | 2.24 m/s, 299° | - | - |
| 1777997214 | -2.78° C | - | 6550.2 hPa | 0.25 mm | 2.68 m/s, 358° | - | - |
| 1777997090 | -2.78° C | - | 6550.2 hPa | 0.25 mm | 4.47 m/s, 314° | - | - |
| 1777996966 | -2.78° C | - | 6550.2 hPa | 0.25 mm | 3.13 m/s, 291° | - | - |
| 1777996842 | -2.78° C | - | 6550.2 hPa | 0.25 mm | 4.47 m/s, 292° | - | - |
| 1777996718 | -2.78° C | - | 6550.2 hPa | 0.25 mm | 1.34 m/s, 276° | - | - |
| 1777996594 | -2.78° C | - | 6550.2 hPa | 0.25 mm | 3.13 m/s, 294° | - | - |
| 1777996346 | -2.78° C | - | 6550.2 hPa | 0.25 mm | 2.68 m/s, 273° | - | - |
| 1777996222 | -2.78° C | - | 6550.2 hPa | 0.25 mm | 1.79 m/s, 317° | - | - |
| 1777996098 | -2.78° C | - | 6550.2 hPa | 0.25 mm | 3.13 m/s, 321° | - | - |
| 1777995974 | -2.78° C | - | 6550.2 hPa | 0.25 mm | 1.34 m/s, 272° | - | - |
| 1777995850 | -2.78° C | - | 6550.2 hPa | 0.25 mm | 2.24 m/s, 299° | - | - |
| 1777995726 | -2.78° C | - | 6550.2 hPa | 0.25 mm | 2.68 m/s, 271° | - | - |
| 1777995602 | -2.78° C | - | 6550.2 hPa | 0.25 mm | 1.34 m/s, 305° | - | - |
| 1777995478 | -2.78° C | - | 6550.2 hPa | 0.25 mm | 2.68 m/s, 294° | - | - |
| 1777994982 | -2.78° C | - | 6550.2 hPa | 0.25 mm | 3.13 m/s, 261° | - | - |
* Rain since midnight (hover to see other rain measurements)
** Current wind speed in m/s (hover to see current wind gust speed)